SENTINEL-5P

Last updated on Sat Jul 05 2025 00:02:29 GMT+0000 (Coordinated Universal Time)

1 42969U 17064A 25185.42576203 .00000038 00000+0 38842-4 0 9997 2 42969 98.7583 125.6440 0001240 93.8900 266.2418 14.19530580400223
UTC large
Height (km)
Speed (km/s)
/
Latitude / Longitude
Inclination (degrees)
Orbital Period (minutes)
Azimuth
Elevation
Range (km)
Doppler Factor

Next 0 passes for location: London (51.5072 / 0.1276)

Sorry there are no passes over London.